Location: Cieszkowy
(50.3290°N, 20.5336°E)
Time: 01:09:15
(UTC+00:00)

Daily predictions for brighter satellites

Satellite Brightness Start Highest point End
(mag) Time Altitude Azimuth Time Altitude Azimuth Time Altitude Azimuth
Cosmos 2082 3.8 00:03:45 20° SSW 00:07:39 71° ESE 00:13:16 10° NNE
Cosmos 292 Rocket 3.7 00:04:41 22° SSW 00:07:49 88° WNW 00:12:39 10° NNE
Cosmos 1544 Rocket 3.7 00:04:42 10° N 00:09:10 75° ENE 00:12:56 14° SSE
Cosmos 1869 3.1 00:05:28 10° N 00:09:11 83° E 00:11:48 18° SSE
Cosmos 2227 Rocket 2.8 00:05:20 14° SW 00:10:00 51° NW 00:15:33 10° NNE
IDEFIX/ARIANE 42P 3.2 00:05:06 10° NNE 00:10:13 50° E 00:14:28 15° S
Cosmos 1943 3.5 00:04:35 10° NNW 00:10:14 70° ENE 00:15:50 10° SE
Cosmos 990 Rocket 4.4 00:08:24 17° SW 00:12:10 53° WNW 00:17:13 10° NNE
CZ-2C R/B 4.3 00:09:53 10° NNE 00:14:53 35° E 00:19:37 10° SSE
Cosmos 2228 3.4 00:10:54 10° N 00:15:13 64° ENE 00:19:18 11° SSE
CZ-2C R/B 3.0 00:10:41 10° SSE 00:15:54 65° ENE 00:21:16 10° N
SL-12 R/B(2) 4.5 00:09:26 14° SW 00:16:52 84° NW 00:27:02 10° NE
GEOS 3 Rocket 4.2 00:11:54 10° NE 00:16:56 53° NW 00:21:54 10° WSW
CENTAUR R/B 2.7 00:12:18 15° SW 00:17:19 78° NW 00:24:42 10° NE
CZ-2D R/B 3.0 00:12:38 10° NNE 00:17:44 42° E 00:22:30 11° SSE
Meteor 1-11 4.3 00:15:36 18° SSW 00:20:02 88° W 00:25:54 10° NNE
H-2A R/B 4.2 00:17:51 10° NNW 00:20:33 17° WNW 00:23:15 10° W
Cosmos 1437 Rocket 4.4 00:18:54 10° SSE 00:22:08 26° E 00:25:20 10° NE
Cosmos 1975 Rocket 3.4 00:21:39 20° SSW 00:24:30 53° WNW 00:28:50 10° N
COBE Rocket 4.0 00:20:58 10° NNE 00:26:09 89° W 00:30:13 17° SSW
SL-4 R/B 4.3 00:26:20 10° WSW 00:26:25 10° WSW 00:26:25 10° WSW
Cosmos 2297 Rocket 4.0 00:26:09 10° W 00:30:47 25° NW 00:35:27 10° NNE
Cosmos 2219 3.6 00:27:36 15° SW 00:32:14 58° NW 00:37:48 10° NNE
H-2A R/B 3.6 00:28:55 10° NNE 00:32:54 65° ESE 00:36:04 15° S
Cosmos 2341 Rocket 4.1 00:28:16 16° SSW 00:33:15 70° WNW 00:39:29 10° N
NPP 3.8 00:28:40 10° NNE 00:34:06 75° ESE 00:38:46 14° S
Cosmos 1455 Rocket 4.4 00:31:23 10° NNW 00:35:04 26° W 00:37:36 16° SW
Aureole 1 Rocket 3.8 00:38:34 15° WSW 00:41:21 40° NW 00:45:40 10° NNE
ASTEX 1 4.4 00:37:30 10° SSE 00:42:06 44° ENE 00:46:43 10° N
Cosmos 1606 Rocket 4.5 00:40:20 10° N 00:44:41 50° ENE 00:48:58 10° SSE
ADEOS II 2.8 00:40:15 10° NNE 00:45:21 49° E 00:50:25 10° S
Cosmos 372 Rocket 4.2 00:42:35 15° SW 00:46:52 66° WNW 00:52:05 10° NNE
Cosmos 921 Rocket 3.6 00:42:57 10° NNW 00:47:11 57° ENE 00:51:18 10° SE
Cosmos 494 Rocket 4.3 00:41:58 10° NNW 00:47:13 70° ENE 00:52:26 10° SSE
Cosmos 1536 Rocket 3.6 00:50:03 13° S 00:54:02 89° E 00:58:29 10° N
Resurs 1-4 Rocket 2.1 00:52:46 10° NNE 00:58:04 89° WNW 01:03:09 11° SSW
BREEZE-M DEB (TANK) 3.8 00:57:49 10° W 00:58:59 12° WSW 00:58:59 12° WSW
Cosmos 1726 Rocket 4.3 00:55:57 10° N 01:00:20 54° ENE 01:04:39 10° SSE
Cosmos 1606 3.9 00:58:53 10° NW 01:01:48 24° W 01:04:04 14° SW
NOSS 3-2 (A) 3.7 00:56:59 10° WSW 01:02:20 62° NW 01:08:47 10° NE
Cosmos 1937 Rocket 3.9 00:58:06 13° SW 01:02:45 57° WNW 01:07:56 10° NNE
Cosmos 2263 Rocket 2.8 00:58:49 11° SW 01:04:00 48° NW 01:09:26 10° NNE
GRACE-FO 2 4.5 01:00:41 10° S 01:04:14 88° E 01:07:48 10° N
Cosmos 1898 Rocket 4.3 01:01:19 11° SW 01:06:00 42° WNW 01:10:55 10° NNE
CZ-4C R/B 4.2 01:01:54 10° WNW 01:06:28 28° NNW 01:12:02 10° NE
Cosmos 1821 Rocket 4.0 01:01:26 10° SSW 01:07:30 80° W 01:13:42 10° N
NOSS 3-2 (C) 3.3 01:03:08 12° SW 01:08:02 83° SE 01:14:26 10° NE
USA 267 4.1 01:02:26 10° ENE 01:08:27 38° SE 01:14:26 10° SSW
Orbus 7S? 3.7 01:05:58 10° WNW 01:08:38 34° SW 01:12:46 10° SSE
Cosmos 2218 Rocket 4.4 01:04:28 12° SSW 01:10:05 49° WNW 01:16:06 10° N
Meteor 1-27 4.5 01:08:09 10° NNW 01:13:53 57° W 01:19:30 10° S
Cosmos 1607 4.0 01:08:23 10° NW 01:14:52 89° SW 01:21:12 10° SE
BlueWalker 3 2.6 01:12:50 10° WNW 01:16:32 57° N 01:20:14 10° E
Cosmos 1461 3.1 01:14:31 10° SW 01:18:22 57° NW 01:22:12 10° NE
Cosmos 1812 3.5 01:14:55 10° N 01:18:25 48° ENE 01:21:52 10° SSE
AQUA 4.0 01:14:52 10° NNE 01:19:38 76° ESE 01:24:20 10° S
Cosmos 1844 Rocket 3.0 01:18:08 10° SSW 01:23:39 64° ESE 01:29:11 10° NE
UNK 4.0 01:19:09 10° SSE 01:23:43 72° ENE 01:28:18 10° N
SAR-Lupe-4 4.4 01:23:13 10° NNE 01:26:42 46° E 01:30:07 10° S
BREEZE-M DEB (TANK) 3.7 01:25:57 10° SW 01:26:49 11° SSW 01:28:00 10° S
MSX 4.3 01:21:54 10° N 01:27:27 52° WNW 01:32:58 10° SW
SL-24 DEB 4.2 01:24:24 10° N 01:28:57 79° W 01:33:31 10° S
BREEZE-M R/B 4.3 01:25:10 10° WNW 01:33:36 67° SSW 01:39:20 10° SE
ALOS 2.4 01:29:36 10° NNE 01:34:15 77° ESE 01:38:52 10° S
Cosmos 2058 Rocket 3.5 01:33:15 10° N 01:37:42 69° ENE 01:42:05 10° SSE
SL-16 R/B 2.7 01:32:07 10° S 01:38:18 62° WSW 01:44:31 10° NNW
Cosmos 2123 Rocket 4.0 01:33:52 10° NNW 01:40:04 80° W 01:46:16 10° S
Iridium 2 2.5 01:38:46 10° S 01:41:13 88° ESE 01:43:44 10° N
Cosmos 1892 Rocket 3.7 01:38:38 10° S 01:43:02 85° E 01:47:30 10° N
Cosmos 1603 4.2 01:38:31 10° NW 01:43:52 41° WSW 01:49:10 10° S
USA 234 3.4 01:39:09 10° ESE 01:45:44 86° NNE 01:52:18 10° WNW
Cosmos 1934 Rocket 4.1 01:40:26 10° S 01:46:47 90° S 01:53:13 10° N
